TimeCDT,TemperatureF,Dew PointF,Humidity,Sea Level PressureIn,VisibilityMPH,Wind Direction,Wind SpeedMPH,Gust SpeedMPH,PrecipitationIn,Events,Conditions,WindDirDegrees,DateUTC
12:54 AM,64.9,55.9,73,29.87,10.0,South,9.2,-,N/A,,Overcast,170,2013-04-09 05:54:00
1:54 AM,64.0,55.0,73,29.85,10.0,SSE,9.2,-,N/A,,Partly Cloudy,160,2013-04-09 06:54:00
2:54 AM,61.0,54.0,78,29.84,10.0,ESE,3.5,-,N/A,,Partly Cloudy,120,2013-04-09 07:54:00
3:54 AM,61.0,55.0,81,29.84,10.0,East,6.9,-,N/A,,Overcast,80,2013-04-09 08:54:00
4:54 AM,61.0,55.0,81,29.85,10.0,East,5.8,-,N/A,,Overcast,100,2013-04-09 09:54:00
5:54 AM,60.1,55.0,83,29.84,10.0,ESE,8.1,-,N/A,,Overcast,110,2013-04-09 10:54:00
6:54 AM,62.1,55.0,78,29.84,10.0,SE,10.4,-,N/A,,Overcast,130,2013-04-09 11:54:00
7:54 AM,63.0,55.0,75,29.84,10.0,SE,6.9,-,N/A,,Overcast,140,2013-04-09 12:54:00
8:54 AM,64.0,55.9,75,29.83,10.0,South,17.3,-,N/A,,Overcast,170,2013-04-09 13:54:00
9:54 AM,66.9,57.0,70,29.81,10.0,South,13.8,-,N/A,,Mostly Cloudy,180,2013-04-09 14:54:00
10:54 AM,72.0,59.0,64,29.80,10.0,South,18.4,26.5,N/A,,Clear,190,2013-04-09 15:54:00
11:54 AM,73.0,57.9,59,29.81,10.0,SSW,21.9,32.2,N/A,,Mostly Cloudy,200,2013-04-09 16:54:00
12:54 PM,73.9,57.9,57,29.80,10.0,SW,21.9,29.9,N/A,,Mostly Cloudy,220,2013-04-09 17:54:00
1:54 PM,77.0,57.9,52,29.79,10.0,SW,24.2,29.9,N/A,,Clear,220,2013-04-09 18:54:00
2:54 PM,77.0,55.9,48,29.78,10.0,SW,19.6,27.6,N/A,,Scattered Clouds,230,2013-04-09 19:54:00
3:54 PM,77.0,55.9,48,29.78,10.0,SW,17.3,25.3,N/A,,Clear,220,2013-04-09 20:54:00
4:54 PM,77.0,57.0,50,29.79,10.0,SW,16.1,-,N/A,,Scattered Clouds,230,2013-04-09 21:54:00
5:54 PM,75.9,57.9,54,29.80,10.0,SW,12.7,-,N/A,,Scattered Clouds,230,2013-04-09 22:54:00
6:54 PM,73.0,57.9,59,29.81,10.0,South,12.7,-,N/A,,Overcast,190,2013-04-09 23:54:00
7:54 PM,70.0,59.0,68,29.80,10.0,South,8.1,-,N/A,,Clear,170,2013-04-10 00:54:00
8:54 PM,69.1,59.0,70,29.83,10.0,South,4.6,-,N/A,,Partly Cloudy,170,2013-04-10 01:54:00
9:54 PM,69.1,59.0,70,29.84,10.0,South,3.5,-,N/A,,Mostly Cloudy,170,2013-04-10 02:54:00
10:54 PM,68.0,59.0,73,29.83,10.0,SSE,4.6,-,N/A,,Overcast,160,2013-04-10 03:54:00
11:54 PM,57.9,51.1,78,29.83,10.0,ENE,11.5,-,N/A,,Overcast,60,2013-04-10 04:54:00